Birmingham, AL

8:43 AM CDT on August 19, 2017 (GMT -0500)
Birmingham International

Weather History for KBHM - November, 2011

Change the Weather History Date:

Saturday, November 5, 2011

  Actual Average Record
Temperature  
Mean Temperature 54 °F 58 °F  
Max Temperature 68 °F 69 °F 83 °F (2003)
Min Temperature 40 °F 47 °F 21 °F (1991)
Degree Days  
Heating Degree Days 11 8  
Month to date heating degree days 52 38  
Since 1 July heating degree days 208 165  
Growing Degree Days 2 (Base 50)    
Moisture  
Dew Point 40 °F    
Average Humidity 69    
Maximum Humidity 100    
Minimum Humidity 38    
Precipitation  
Precipitation 0.00 in 0.14 in 1.85 in (1959)
Month to date precipitation 0.21 0.68  
Year to date precipitation 46.92 45.10  
Snow  
Snow 0.00 in 0.00 in - ()
Month to date snowfall 0.0 0.0  
Since 1 July snowfall 0.0 0.0  
Since 1 September snowfall 0.0 0.0  
Snow Depth 0.00 in    
Sea Level Pressure  
Sea Level Pressure 30.21 in    
Wind  
Wind Speed 6 mph (East)    
Max Wind Speed 15 mph    
Max Gust Speed 22 mph    
Visibility 9 miles    
Events      
T = Trace of Precipitation, MM = Missing Value Source: NWS Daily Summary

Daily Weather History Graph

Daily Weather History Graph

Search for Another Location

Airport or City:

Trip Planner

Search our weather history database for the weather conditions in past years. The results will help you decide how hot, cold, wet, or windy it might be!

Date:

Astronomy

Nov. 05, 2011 Rise Set
Actual Time 7:09 AM CDT 5:51 PM CDT
Civil Twilight 6:43 AM CDT 6:17 PM CDT
Nautical Twilight 6:13 AM CDT 6:46 PM CDT
Astronomical Twilight 5:44 AM CDT 7:16 PM CDT
Moon 2:58 PM CDT (11/5) 2:31 AM CDT (11/5)
Length of Visible Light 11h 34m
Length of Day
10h 42m
Waxing Gibbous, 78% of the Moon is Illuminated
Nov 5
Waxing Gibbous
Nov 10
Full
Nov 18
Last Quarter
Nov 25
New
Dec 2
First Quarter

Hourly Weather History & Observations

Time (CDT) Temp. Windchill Dew Point Humidity Pressure Visibility Wind Dir Wind Speed Gust Speed Precip Events Conditions
12:53 AM 43.0 °F - 41.0 °F 93% 30.16 in 6.0 mi Calm Calm - N/A   Clear
1:53 AM 41.0 °F - 39.0 °F 93% 30.16 in 5.0 mi Calm Calm - N/A   Clear
2:53 AM 39.9 °F - 39.0 °F 97% 30.17 in 7.0 mi Calm Calm - N/A   Clear
3:53 AM 41.0 °F - 39.2 °F 93% 30.16 in 7.0 mi Calm Calm - N/A   Clear
4:53 AM 46.9 °F - 43.0 °F 86% 30.17 in 7.0 mi ENE 5.8 mph - N/A   Clear
5:53 AM 46.9 °F - 43.0 °F 86% 30.19 in 8.0 mi NNE 3.5 mph - N/A   Clear
6:53 AM 46.4 °F 44.3 °F 42.8 °F 87% 30.21 in 7.0 mi NE 4.6 mph - N/A   Clear
7:53 AM 48.2 °F - 42.8 °F 82% 30.23 in 6.0 mi NE 5.8 mph - N/A   Haze
8:53 AM 52.0 °F - 44.1 °F 74% 30.25 in 7.0 mi NE 5.8 mph - N/A   Clear
9:53 AM 55.9 °F - 44.1 °F 64% 30.26 in 10.0 mi East 5.8 mph - N/A   Clear
10:53 AM 59.0 °F - 43.0 °F 55% 30.26 in 10.0 mi ESE 10.4 mph 21.9 mph N/A   Clear
11:53 AM 61.0 °F - 43.0 °F 52% 30.26 in 10.0 mi East 9.2 mph - N/A   Clear
12:53 PM 64.0 °F - 43.0 °F 46% 30.24 in 10.0 mi SSE 6.9 mph - N/A   Clear
1:53 PM 66.0 °F - 43.0 °F 43% 30.21 in 10.0 mi Variable 5.8 mph - N/A   Clear
2:53 PM 66.2 °F - 42.8 °F 43% 30.20 in 10.0 mi Variable 6.9 mph - N/A   Clear
3:53 PM 66.9 °F - 41.0 °F 39% 30.18 in 10.0 mi ESE 9.2 mph - N/A   Clear
4:53 PM 66.0 °F - 41.0 °F 40% 30.18 in 10.0 mi East 6.9 mph - N/A   Clear
5:53 PM 63.0 °F - 41.0 °F 45% 30.18 in 10.0 mi ENE 4.6 mph - N/A   Clear
6:53 PM 60.1 °F - 39.9 °F 47% 30.20 in 10.0 mi East 4.6 mph - N/A   Clear
7:53 PM 57.9 °F - 37.9 °F 47% 30.21 in 10.0 mi East 4.6 mph - N/A   Clear
8:53 PM 55.9 °F - 37.0 °F 49% 30.23 in 10.0 mi ESE 6.9 mph - N/A   Clear
9:53 PM 55.4 °F - 30.2 °F 38% 30.26 in 10.0 mi ESE 9.2 mph - N/A   Clear
10:53 PM 53.6 °F - 30.2 °F 41% 30.28 in 10.0 mi ESE 8.1 mph - N/A   Clear
11:53 PM 52.0 °F - 32.0 °F 47% 30.27 in 10.0 mi ESE 13.8 mph 19.6 mph N/A   Clear